Location: Chinju
(35.1928°N, 128.0847°E)
Time: 12:45:24
(UTC+00:00)

Daily predictions for brighter satellites

Satellite Brightness Start Highest point End
(mag) Time Altitude Azimuth Time Altitude Azimuth Time Altitude Azimuth
CENTAUR R/B 4.2 12:09:22 14° ENE 12:09:22 14° ENE 12:10:41 10° ENE
Terra 4.1 12:06:42 10° ENE 12:06:42 10° ENE 12:07:27 10° NE
Resurs 1-3 4.0 12:06:31 22° S 12:09:12 59° W 12:13:33 10° NNW
Cosmos 972 4.5 12:07:45 10° N 12:12:46 59° ENE 12:13:56 46° ESE
Cosmos 1666 Rocket 3.3 12:16:00 50° SSE 12:17:04 77° E 12:21:23 10° N
Cosmos 1980 Rocket 3.4 12:12:43 10° N 12:17:19 25° ENE 12:18:16 24° ENE
SPOT 1/Viking Rocket 4.2 12:16:42 35° E 12:17:25 37° ENE 12:22:11 10° N
SL-8 R/B 4.2 12:13:03 10° NW 12:17:46 50° NNE 12:19:02 39° ENE
Skynet4D Del rocket 4.3 12:13:38 10° SW 12:18:35 34° S 12:18:38 34° S
SPOT 5 4.5 12:19:44 17° NE 12:19:44 17° NE 12:21:54 10° NNE
ATLAS 5 CENTAUR R/B 2.4 12:21:00 10° NNW 12:27:05 88° WSW 12:29:33 43° SSE
Cosmos 1140 Rocket 3.5 12:21:56 10° SSW 12:27:10 79° WNW 12:32:26 10° NNE
Cosmos 1833 Rocket 3.4 12:22:20 10° SW 12:27:46 52° WNW 12:33:16 10° N
USA 32 4.1 12:30:33 53° E 12:30:43 53° E 12:35:48 10° NNE
NOSS 3-2 (A) 3.1 12:28:56 38° S 12:30:59 62° ESE 12:37:00 10° NE
Meteor 1-4 Rocket 4.0 12:29:35 10° N 12:31:29 28° NNE 12:31:29 28° NNE
Cosmos 1697 Rocket 2.6 12:27:52 10° NNW 12:33:28 65° ENE 12:34:22 56° ESE
NOSS 3-2 (C) 4.5 12:39:11 27° ENE 12:39:11 27° ENE 12:42:17 10° NE
Cosmos 1934 Rocket 4.0 12:34:05 28° S 12:37:39 86° W 12:44:03 10° N
Cosmos 1867 3.6 12:34:07 10° SSW 12:39:32 81° WNW 12:45:01 10° NNE
BREEZE-M TANK 4.1 12:25:08 10° SW 12:39:59 45° SSE 12:40:05 45° SSE
Cosmos 1656 4.3 12:40:51 10° NNW 12:46:07 49° WSW 12:47:42 38° SSW
Meteor 1-25 Rocket 4.1 12:46:36 67° ESE 12:46:42 67° E 12:52:15 10° NNE
Aureole 1 Rocket 4.3 12:43:39 20° SSW 12:48:18 78° WNW 12:56:11 10° NNE
SL-4 R/B 4.3 12:45:23 10° W 12:48:34 23° NNW 12:51:34 10° NNE
Cosmos 1633 Rocket 3.8 12:49:55 45° WSW 12:50:40 51° W 12:54:59 10° N
BREEZE-M DEB (TANK) 3.9 12:50:00 10° WNW 12:51:39 21° W 12:51:39 21° W
Landsat 7 3.9 12:54:34 72° W 12:54:34 72° W 12:59:19 10° NNW
Cosmos 676 Rocket 4.2 12:53:08 47° SW 12:54:37 72° WNW 12:59:58 10° NNE
Resurs 01 Rocket 3.4 12:57:15 22° WSW 12:58:28 25° W 13:02:07 10° NW
Cosmos 2360 4.1 12:53:34 10° NNW 12:59:20 82° ENE 12:59:27 81° E
Meteor 2-20 Rocket 4.3 12:57:02 10° N 13:03:13 86° W 13:03:55 72° S
USA 234 3.4 13:09:23 52° ENE 13:10:27 58° NE 13:16:51 10° NW
SL-24 R/B - RUBIN 2 4.2 13:05:04 10° NNW 13:11:38 89° NE 13:11:42 88° ESE
ERS-1 Rocket 3.3 13:16:08 61° NNW 13:16:08 61° NNW 13:20:17 10° NNW
SL-16 R/B 3.9 13:11:20 10° N 13:15:02 21° NE 13:15:02 21° NE
Cosmos 2123 Rocket 4.5 13:12:04 10° NNW 13:18:05 54° W 13:19:17 47° SW
Cosmos 2369 4.1 13:14:47 10° NNW 13:20:18 54° WSW 13:20:18 54° WSW
Cosmos 2082 Rocket 3.8 13:15:17 10° SW 13:20:22 33° WNW 13:25:28 10° N
Cosmos 1605 Rocket 4.4 13:22:38 48° WSW 13:23:51 56° W 13:29:51 10° N
USA 238 DEB 4.2 13:20:14 10° SW 13:26:40 55° NW 13:33:21 10° NNE
USA 238 4.2 13:20:21 10° SW 13:26:46 56° NW 13:33:27 10° NNE
Lacrosse 5 4.0 13:26:14 10° N 13:29:31 17° NNE 13:29:44 17° NE
Cosmos 2278 4.0 13:24:08 10° NNW 13:29:06 62° WNW 13:29:06 62° WNW
Cosmos 2322 Rocket 3.8 13:33:35 10° N 13:37:13 25° NE 13:37:13 25° NE
Terra 3.2 13:45:35 35° NNW 13:45:35 35° NNW 13:48:24 10° NNW
Cosmos 2360 Rocket 4.2 13:48:44 10° NNE 13:51:37 18° NE 13:51:37 18° NE
CENTAUR R/B 2.9 13:56:27 55° NW 13:56:27 55° NW 14:02:49 10° NNE
Cosmos 1459 Rocket 4.5 14:00:06 56° N 14:00:06 56° N 14:05:00 10° N
Cosmos 1980 Rocket 3.5 13:56:10 10° NW 14:00:01 34° WNW 14:00:01 34° WNW
SL-16 R/B 4.1 14:54:33 10° NW 14:56:53 24° NW 14:56:53 24° NW
ATLAS 3B R/B 3.7 15:12:23 40° NNW 15:12:23 40° NNW 15:17:21 10° NNE
Cosmos 2219 Rocket 4.1 15:07:02 10° N 15:09:54 24° NNE 15:09:54 24° NNE
Lacrosse 5 4.5 15:08:01 10° NW 15:08:53 15° NW 15:08:53 15° NW
Cosmos 2322 Rocket 4.4 15:17:17 10° NW 15:19:01 19° NW 15:19:01 19° NW
Cosmos 2360 Rocket 4.3 15:31:30 10° NNW 15:33:22 21° NW 15:33:22 21° NW
Cosmos 2297 Rocket 4.5 15:47:07 17° NE 15:47:07 17° NE 15:48:32 10° NE
Cosmos 2333 Rocket 4.0 15:50:57 10° NNW 15:53:26 27° NNW 15:53:26 27° NNW
Cosmos 2237 Rocket 4.1 15:57:02 10° N 16:00:27 24° NE 16:00:27 24° NE
Resurs 1-4 Rocket 4.1 16:21:47 10° NNE 16:24:04 23° NE 16:24:04 23° NE
Cosmos 2227 Rocket 3.7 16:35:26 33° NNE 16:35:26 33° NNE 16:38:28 10° NNE
SL-16 R/B 3.3 16:45:52 46° NE 16:45:52 46° NE 16:51:17 10° N
ADEOS II 3.5 17:06:08 10° NNE 17:09:48 31° ENE 17:09:48 31° ENE
CZ-2D R/B 3.1 17:05:58 10° NNE 17:09:39 44° N 17:09:39 44° N
SL-16 R/B 3.5 17:06:30 10° N 17:11:41 35° ENE 17:12:36 33° E
USA 215 3.4 17:07:04 10° NE 17:12:48 68° ENE 17:12:48 68° ENE
ATLAS 3B CENTAUR R/B 3.9 17:13:32 61° S 17:13:39 61° S 17:21:46 10° ESE
Cosmos 2263 Rocket 3.9 17:23:21 22° ESE 17:23:24 22° E 17:27:37 10° NE
Cosmos 2297 Rocket 3.6 17:28:55 29° NW 17:28:55 29° NW 17:32:37 10° N
Meteor 2-5 Rocket 4.3 17:23:31 10° N 17:27:52 54° NNE 17:27:52 54° NNE
NOSS 3-1 (C) 3.4 17:40:09 65° NE 17:40:09 65° NE 17:45:14 10° NNE
Cosmos 2237 Rocket 4.1 17:40:38 10° NW 17:42:13 18° NW 17:42:13 18° NW
SJ 16-02 3.1 17:50:02 26° NNW 17:50:02 26° NNW 17:52:13 10° N
SL-4 R/B 4.4 17:52:52 15° ENE 17:52:52 15° ENE 17:53:55 10° E
Cosmos 1953 4.3 17:52:05 24° E 17:52:05 24° E 17:55:06 10° NE
Timation 1 Rocket 4.2 17:55:05 78° ESE 17:55:10 78° ESE 18:01:08 10° NNE
Cosmos 1455 Rocket 4.1 18:02:42 40° N 18:02:42 40° N 18:05:37 10° N
Resurs 1-4 Rocket 3.6 18:01:57 10° NNW 18:05:08 23° NW 18:05:08 23° NW
IRS-P3 4.0 18:01:51 10° NNE 18:07:14 87° WNW 18:07:14 87° W
Meteor 1-28 Rocket 4.4 18:10:22 41° NE 18:10:22 41° NE 18:13:35 10° N
CZ-2D R/B 4.5 18:07:17 10° NNE 18:10:50 39° E 18:10:50 39° E
Cosmos 1937 Rocket 3.5 18:11:21 69° NW 18:11:21 69° NW 18:16:27 10° NNE
Cosmos 2112 Rocket 3.8 18:06:45 10° NNW 18:11:55 88° NNW 18:11:55 88° NNW
USA 229 DEB 3.6 18:12:20 58° W 18:13:16 64° WNW 18:19:59 10° NNE
USA 229 3.6 18:12:26 58° W 18:13:21 65° WNW 18:20:03 10° NNE
BREEZE-M DEB (TANK) 3.9 18:14:06 47° SE 18:14:10 47° SE 18:22:40 10° NE
Cosmos 2227 Rocket 4.2 18:17:15 15° WNW 18:17:25 15° NW 18:20:39 10° NNW
Cosmos 1898 Rocket 4.2 18:18:38 41° NW 18:18:38 41° NW 18:23:10 10° N
SL-08 R/B 3.5 18:19:24 50° SE 18:20:37 74° ENE 18:25:34 10° N
Cosmos 1607 3.9 18:16:48 10° NNW 18:23:14 71° WSW 18:26:27 31° SSE
Cosmos 1470 4.3 18:25:41 27° NNW 18:25:41 27° NNW 18:27:52 10° N
NOSS 2-3 (C) 3.7 18:24:38 62° NNW 18:24:38 62° NNW 18:28:52 10° NNE
NOSS 3-1 (A) 3.1 18:23:56 64° W 18:24:33 70° WNW 18:30:34 10° NNE
ARIANE 5 R/B 2.4 18:20:01 10° NNE 18:25:16 85° WNW 18:26:00 67° SSW
Cosmos 372 Rocket 4.0 18:27:41 56° S 18:28:44 75° ESE 18:33:57 10° NNE
SL-16 R/B 4.0 18:30:58 21° WNW 18:30:58 21° WNW 18:33:58 10° NW
Cosmos 1680 Rocket 4.0 18:24:07 10° NNW 18:28:08 44° WNW 18:28:08 44° WNW
Cosmos 2227 4.1 18:29:59 58° SW 18:31:06 78° WNW 18:36:53 10° NNE
H-2A R/B 3.7 18:34:24 10° SE 18:38:04 32° ENE 18:41:44 10° N
IDEFIX/ARIANE 42P 2.5 18:34:07 10° NNE 18:39:20 83° ESE 18:41:10 42° S
Meteor 1-16 Rocket 4.1 18:44:20 32° S 18:46:53 79° E 18:52:21 10° N
MSX 4.1 18:41:09 10° NNE 18:46:54 67° ESE 18:50:37 23° S
Cosmos 2266 Rocket 4.4 18:41:42 10° NNW 18:47:37 43° W 18:48:53 38° WSW
Cosmos 1125 Rocket 4.4 18:46:18 20° SSE 18:49:37 46° ESE 18:54:37 10° NNE
ADEOS II 3.3 18:46:08 10° NNW 18:50:22 25° WNW 18:50:44 25° WNW
CZ-2D R/B 4.4 18:50:17 10° WNW 18:50:38 10° WNW 18:50:58 10° WNW
Delta 2 Rocket 3.2 18:52:59 54° SSE 18:52:59 54° SSE 18:56:45 10° E
SL-16 R/B 3.3 18:50:52 10° NW 18:54:22 25° W 18:54:22 25° W
Meteor 2-10 4.4 18:54:16 40° WSW 18:55:43 50° WNW 19:01:09 10° N
USA 215 4.5 18:50:37 10° NNE 18:56:10 30° NNW 19:00:08 17° W
ERS-2 3.5 18:54:35 10° SE 18:57:59 39° ENE 19:01:25 10° N
CZ-4C R/B 3.6 18:56:23 19° SE 18:58:28 50° ENE 19:01:38 10° N
DEBRIS 2.8 18:59:52 40° NNW 18:59:52 40° NNW 19:01:44 10° NE
Meteor 2-14 Rocket 4.3 18:54:33 10° NNW 19:00:35 70° W 19:05:43 15° S
Cosmos 1726 3.2 19:01:31 29° WNW 19:01:31 29° WNW 19:04:13 10° NNW
Cosmos 2263 Rocket 2.7 19:05:03 31° WSW 19:06:59 41° WNW 19:12:14 10° N
Cosmos 724 4.3 19:01:05 10° NNW 19:07:10 90° ENE 19:13:19 10° SSE
Nadezhda 2 Rocket 4.4 19:03:39 10° NNW 19:09:48 68° W 19:15:51 10° S
Cosmos 1606 Rocket 3.8 19:06:58 16° S 19:10:27 69° E 19:14:55 10° NNE
Cosmos 2298 Rocket 4.1 19:10:07 30° SW 19:12:36 58° WNW 19:17:52 10° N
Cosmos 1602 Rocket 3.7 19:09:12 10° NNW 19:13:23 49° W 19:15:19 28° SSW
Atlas Centaur 2 3.6 19:09:31 23° SSW 19:13:29 40° SSE 19:21:06 10° E
CZ-2C R/B 2.9 19:10:08 10° N 19:13:52 50° WNW 19:14:57 37° SW
Cosmos 2084 3.4 19:12:32 32° SSW 19:14:33 90° ESE 19:18:59 10° NNE
CSL-04 DEB 4.2 19:15:29 17° S 19:18:23 61° W 19:22:16 10° NNW
Cosmos 1908 3.4 19:17:27 33° SW 19:18:54 53° W 19:22:45 10° N
SeaSat 1 2.4 19:14:25 10° NNE 19:19:20 75° WNW 19:22:31 22° SW
USA 267 3.6 19:18:27 10° ESE 19:24:54 68° NE 19:31:24 10° NW
OAO 3 Rocket 3.2 19:22:36 23° W 19:25:41 85° S 19:30:38 10° E
PAYLOAD A 4.1 19:21:23 10° NNE 19:26:44 88° ESE 19:31:52 10° SSW
Cosmos 1726 Rocket 3.6 19:23:24 10° S 19:27:45 85° E 19:32:14 10° N
Cosmos 1953 3.9 19:27:48 18° W 19:28:07 18° WNW 19:30:58 10° NNW
SL-4 R/B 1.9 19:28:43 17° WNW 19:30:56 38° SW 19:34:08 10° SSE
OAO 2 Rocket 4.2 19:27:52 20° SW 19:31:01 39° SSE 19:35:51 10° E
Cosmos 1844 Rocket 3.1 19:27:19 10° S 19:32:48 61° ESE 19:38:17 10° NNE
Cosmos 1356 Rocket 3.4 19:29:14 10° S 19:33:27 88° ESE 19:37:39 10° N
ATLAS CENTAUR R/B 1.5 19:31:40 22° SW 19:34:13 60° WNW 19:38:12 10° NNE
Landsat 5 3.4 19:31:40 10° S 19:35:24 50° W 19:39:17 10° NNW
Cosmos 1603 3.8 19:30:04 10° NNW 19:35:36 52° WSW 19:41:06 10° S
ATLAS 3B CENTAUR R/B 3.2 19:26:52 12° W 19:35:56 39° SSW 19:40:43 10° SE
H-2A R/B (2) 2.2 19:36:02 21° SW 19:36:59 25° S 19:40:04 10° ESE
Cosmos 1048 Rocket 4.0 19:34:19 10° NNW 19:39:29 86° ENE 19:44:41 10° SSE
PSLV R/B 3.7 19:37:16 10° N 19:41:34 59° WNW 19:45:46 10° SSW
Meteor 2-15 4.4 19:38:47 10° S 19:44:50 81° W 19:50:55 10° N
deb Chang Zheng 4 3.5 19:45:43 10° N 19:50:04 78° WNW 19:54:25 10° SSW
MINOTAUR IV R/B 4.5 19:46:09 10° NNW 19:50:38 80° WSW 19:55:05 10° SSE
Cosmos 1328 4.3 19:47:31 10° NNW 19:51:15 39° W 19:54:58 10° SSW
Cosmos 2228 3.8 19:51:13 12° SW 19:54:48 33° WNW 19:58:48 10° NNW
Cosmos 1300 2.7 19:52:04 10° SSW 19:55:49 62° W 19:59:37 10° N
Cosmos 1703 4.3 19:53:29 10° NNW 19:56:52 27° W 20:00:13 10° SSW
Cosmos 2058 Rocket 3.1 19:52:54 10° SSW 19:57:22 71° W 20:01:50 10° N
FALCON 9 DEB 3.5 19:55:48 10° WNW 19:59:07 42° SW 20:02:23 10° SSE
NOSS 2-2 (C) 3.3 19:55:56 10° SSW 19:59:31 68° ESE 20:03:08 10° NE
Cosmos 1943 3.7 19:55:46 10° NW 20:00:53 37° WSW 20:05:58 10° S
ADEOS Rocket 3.9 19:59:29 10° SSE 20:06:56 76° ENE 20:14:44 10° N
ASTRO F (AKARI) 4.1 20:08:16 10° N 20:11:22 78° WNW 20:14:26 10° SSW
CZ-2C R/B 3.0 20:07:38 10° N 20:11:46 34° WNW 20:15:57 10° SW
ALOS 2.5 20:08:52 10° NNE 20:13:33 79° ESE 20:18:13 10° S
H-2A R/B 3.5 20:11:32 10° SW 20:14:05 16° W 20:16:39 10° NW
BREEZE-M TANK 4.4 20:09:57 10° WNW 20:14:47 79° SSW 20:38:43 10° SE
Meteor 1-31 Rocket 2.8 20:12:01 10° NNE 20:15:53 88° WNW 20:19:41 10° SSW
Cosmos 1484 Rocket 2.6 20:16:13 10° N 20:19:54 71° WNW 20:23:36 10° SSW
ADEOS 3.9 20:16:34 10° N 20:21:35 48° WNW 20:26:34 10° SW
